SCP
2 2 2 3 3 3 3 3 3 3 3 3 3 3 2 1 1 1 1 1 1 1 1 1 1 1 1 1 0 0 0 0 0 0 0 0 0 0 0 0 0 0 0
3 3 2 3 3 3 3 3 4 4 4 4 4 4 3 2 1 1 1 1 1 1 1 1 1 1 1 1 0 0 0 0 0 0 0 0 0 0 0 0 0 0 0
5 4 3 3 3 4 4 4 4 4 4 5 5 5 4 3 2 1 1 1 1 1 1 1 1 1 1 0 0 0 0 0 0 0 0 0 0 0 0 0 0 0 0
5 5 4 3 4 4 4 5 5 5 5 5 5 5 5 4 3 2 1 0 0 1 1 1 1 0 0 0 0 0 0 0 0 0 0 0 0 0 0 0 0 0 0
5 5 4 4 4 5 5 6 5 5 6 6 5 5 4 3 2 1 1 0 0 0 0 0 0 0 0 0 0 0 0 0 0 0 0 0 0 0 0 0 0 0 0
4 4 4 4 4 4 5 5 6 6 7 6 5 4 3 2 1 1 0 0 0 0 0 0 0 0 0 0 0 0 0 0 0 0 0 0 0 0 0 0 0 0 0
3 3 3 3 3 3 4 5 5 6 6 5 4 3 2 1 1 0 0 0 0 0 0 0 0 0 0 0 0 0 0 0 0 0 0 0 0 0 0 0 0 0 0
2 2 2 2 2 2 2 3 4 4 4 3 2 1 1 1 0 0 0 0 0 0 0 0 0 0 0 0 0 0 0 0 0 0 0 0 0 0 0 0 0 0 0
1 1 1 1 1 1 1 1 2 2 2 1 1 0 0 0 0 0 0 0 0 0 0 0 0 0 0 0 0 0 0 0 0 0 0 0 0 0 0 0 0 0 0
0 0 0 0 0 0 0 0 1 1 0 0 0 0 0 0 0 0 0 0 0 0 0 0 0 0 0 0 0 0 0 0 0 0 0 0 0 0 0 0 0 0 0
0 0 0 0 0 0 0 0 0 0 0 0 0 0 0 0 0 0 0 0 0 0 0 0 0 0 0 0 0 0 0 0 0 0 0 0 0 0 0 0 0 0 0
0 0 0 0 0 0 0 0 0 0 0 0 0 0 0 0 0 0 0 0 0 0 0 0 0 0 0 0 0 0 0 0 0 0 0 0 0 0 0 0 0 0 0
0 0 0 0 0 0 0 0 0 0 0 0 0 0 0 0 0 0 0 0 0 0 0 0 0 0 0 0 0 0 0 0 0 0 0 0 0 0 0 0 0 0 0
0 0 0 0 0 0 0 0 0 0 0 0 0 0 0 0 0 0 0 0 0 0 0 0 0 0 0 0 0 0 0 0 0 0 0 0 0 0 0 0 0 0 0
0 0 0 0 0 0 0 0 0 0 0 0 0 0 0 0 0 0 0 0 0 0 0 0 0 0 0 0 0 0 0 0 0 0 0 0 0 0 0 0 0 0 0
0 0 0 0 0 0 0 0 0 0 0 0 0 0 0 0 0 0 0 0 0 0 0 0 0 0 0 0 0 0 0 0 0 0 0 0 0 0 0 0 0 0 0
0 0 0 0 0 0 0 0 0 0 0 0 0 0 0 0 0 0 0 0 0 0 0 0 0 0 0 0 0 0 0 0 0 0 0 0 0 0 0 0 0 0 0
0 0 0 0 0 0 0 0 0 0 0 0 0 0 0 0 0 0 0 0 0 0 0 0 0 0 0 0 0 0 0 0 0 0 0 0 0 0 0 0 0 0 0
0 0 0 0 0 0 0 0 0 0 0 0 0 0 0 0 0 0 0 0 0 0 0 0 0 0 0 0 0 0 0 0 0 0 0 0 0 0 0 0 0 0 0
0 0 0 0 0 0 0 0 0 0 0 0 0 0 0 0 0 0 0 0 0 0 0 0 0 0 0 0 0 0 0 0 0 0 0 0 0 0 0 0 0 0 0
0 0 0 0 0 0 0 0 0 0 0 0 0 0 0 0 0 0 0 0 0 0 0 0 0 0 0 0 0 0 0 0 0 0 0 0 0 0 0 0 0 0 0
0 0 0 0 0 0 0 0 0 0 0 0 0 0 0 0 0 0 0 0 0 0 0 0 0 0 0 0 0 0 0 0 0 0 0 0 0 0 0 0 0 0 0
0 0 0 0 0 0 0 0 0 0 0 0 0 0 0 0 0 0 0 0 0 0 0 0 0 0 0 0 0 0 0 0 0 0 0 0 0 0 0 0 0 0 0
0 0 0 0 0 0 0 0 0 0 0 0 0 0 0 0 0 0 0 0 0 0 0 0 0 0 0 0 0 0 0 0 0 0 0 0 0 0 0 0 0 0 0
0 0 0 0 0 0 0 0 0 0 0 0 0 0 0 0 0 0 0 0 0 0 0 0 0 0 0 0 0 0 0 0 0 0 0 0 0 0 0 0 0 0 0
0 0 0 0 0 0 0 0 0 0 0 0 0 0 0 0 0 0 0 0 0 0 0 0 0 0 0 0 0 0 0 0 0 0 0 0 0 0 0 0 0 0 0
Wind_Speed
5 4 5 7 8 8 10 11 11 10 9 7 6 5 4 3 2 2 3 4 4 5 5 4 4 4 3 4 4 3 3 3 2 3 3 3 5 5 4 3 3 3 3
2 1 3 5 7 8 8 9 10 10 9 7 5 4 5 4 3 2 3 3 4 5 5 5 5 5 4 4 3 3 3 2 2 2 2 1 2 3 4 4 3 3 3
4 3 3 2 3 5 6 6 7 8 9 9 7 6 5 4 3 2 2 3 4 4 4 5 5 5 4 4 3 3 4 3 2 2 2 3 3 1 2 4 4 4 4
8 7 6 5 3 1 4 6 7 8 9 10 10 11 7 5 4 4 4 5 5 5 5 6 6 6 5 5 4 3 3 4 3 2 3 3 2 3 2 1 3 4 5
11 10 10 8 6 4 3 5 7 8 8 8 9 8 7 5 5 6 7 6 6 7 7 7 7 7 6 6 6 5 5 3 3 2 2 3 3 3 2 2 1 2 3
12 12 11 11 10 8 7 6 8 7 8 8 8 8 9 9 8 7 7 6 6 7 8 8 8 8 7 7 7 7 8 6 6 5 3 2 2 2 2 2 1 1 1
12 12 13 13 12 11 9 8 9 8 8 9 8 9 9 9 9 8 8 8 6 6 7 7 8 7 7 8 8 8 8 7 8 7 5 5 3 2 2 2 1 1 1
11 13 13 12 12 13 11 10 10 10 10 10 10 10 10 8 7 9 8 8 7 7 8 8 9 9 8 9 8 8 7 7 8 8 6 5 4 3 2 2 1 0 1
12 12 13 13 13 14 13 12 12 12 12 12 13 12 12 11 11 11 10 8 8 8 9 9 10 9 9 9 8 7 7 7 7 6 6 4 3 3 3 2 1 2 1
11 11 12 13 13 13 13 14 14 14 13 13 12 11 12 13 11 11 11 11 10 9 10 10 10 10 9 9 8 7 6 7 5 4 5 4 2 2 2 1 1 1 2
9 10 10 11 12 13 13 13 13 14 14 13 13 13 13 13 12 12 11 11 10 10 10 10 10 10 9 8 7 7 6 6 5 4 4 3 2 1 1 1 1 1 2
9 10 10 11 12 13 13 13 13 14 13 13 13 13 13 13 12 12 11 11 11 10 10 10 10 9 9 7 7 7 6 5 4 3 3 2 1 1 0 1 1 2 3
9 9 10 11 11 12 12 12 12 12 12 12 13 13 12 12 12 11 10 10 10 10 10 10 9 8 7 7 6 6 5 5 4 3 3 2 2 2 2 2 2 2 3
9 10 10 10 11 11 11 12 12 11 11 12 13 12 11 10 10 10 10 9 9 9 8 8 7 7 6 6 5 5 5 5 4 4 3 3 3 3 3 3 3 3 3
10 10 10 10 10 10 10 11 11 11 11 11 12 11 9 9 9 9 8 8 8 8 6 6 6 5 4 4 4 4 5 5 5 5 5 5 7 6 4 4 4 3 4
10 11 11 11 10 10 10 10 10 9 9 10 10 8 8 9 8 7 7 7 6 5 5 4 4 3 3 4 6 5 4 4 5 6 7 7 6 9 9 10 9 7 7
10 10 10 9 9 8 8 8 8 8 9 9 8 8 7 7 6 6 6 6 4 4 3 3 3 2 2 3 4 5 3 3 4 5 6 6 7 8 6 9 11 11 13
10 10 9 8 7 7 7 7 8 8 8 8 7 6 6 6 5 5 5 4 3 2 2 1 2 2 3 3 3 4 3 4 5 6 6 6 8 7 8 8 9 10 11
9 8 8 7 7 7 7 8 8 7 7 6 6 5 5 5 5 4 3 2 2 1 1 1 2 2 4 5 5 4 3 4 7 7 7 7 8 10 11 9 10 11 11
8 8 7 7 7 6 6 8 7 6 5 5 4 4 4 4 4 3 2 1 1 1 2 2 2 2 3 5 6 4 2 5 6 7 8 9 9 11 12 9 8 10 10
8 8 7 6 5 5 6 7 6 5 3 4 4 4 3 3 3 2 1 1 2 2 3 3 3 3 3 5 7 6 3 4 6 7 7 8 12 14 14 11 7 9 10
8 7 7 6 4 5 6 6 4 2 3 4 4 3 2 1 2 2 1 2 2 2 2 2 3 2 3 4 6 8 7 6 5 7 7 8 14 16 15 10 9 11 9
6 6 7 6 5 4 5 5 2 2 3 3 2 1 1 1 1 1 1 1 1 1 1 2 2 3 3 4 7 8 9 10 6 6 11 14 15 13 9 9 11 8 4
6 5 6 6 4 3 3 3 2 2 3 2 1 1 1 1 1 1 1 1 1 0 0 1 2 3 3 4 5 6 7 9 8 7 10 12 10 7 7 7 6 4 4
4 4 5 5 3 2 2 1 2 2 2 1 0 1 1 1 1 1 1 0 1 2 1 1 1 2 4 5 8 7 7 7 7 8 5 5 6 7 7 7 6 5 5
4 4 4 3 2 1 1 0 1 2 2 0 1 1 1 0 0 1 2 4 2 1 1 1 2 3 5 9 11 11 11 11 10 5 4 5 5 6 6 7 7 6 6
Wind_Direction
202 173 172 171 175 178 182 182 178 174 168 170 169 161 156 137 129 124 137 143 147 149 146 147 138 137 139 140 132 112 96 70 54 85 60 31 37 43 30 32 47 50 48
32 78 152 161 172 182 184 183 178 171 173 173 158 135 124 117 106 89 81 101 134 142 145 145 140 134 128 124 125 124 118 84 41 116 127 119 26 26 30 36 47 45 44
48 34 47 89 137 171 177 179 173 167 165 153 132 121 107 103 110 102 86 63 79 94 111 122 122 118 119 125 116 117 127 127 72 41 142 159 183 116 31 31 39 41 43
39 36 34 39 48 153 157 155 155 154 152 150 154 153 152 154 145 131 108 85 73 80 89 97 100 97 95 99 93 85 102 122 126 75 46 64 111 142 131 37 24 40 47
42 41 38 37 35 42 98 128 132 133 140 147 153 146 136 128 117 112 106 89 73 66 72 82 87 86 83 83 80 79 76 80 103 108 97 75 61 61 122 136 24 35 37
40 40 39 40 38 42 62 89 105 110 121 126 128 130 131 128 126 120 113 97 82 72 68 74 77 79 81 80 79 78 77 77 79 76 71 86 87 75 84 109 87 19 18
42 39 37 36 36 41 52 73 89 91 93 100 102 106 114 118 118 116 108 101 89 80 75 78 80 80 81 79 79 79 76 76 80 78 73 67 65 76 86 94 88 350 334
45 44 40 39 39 40 46 62 76 79 81 86 86 87 92 91 93 92 96 95 91 86 83 81 80 78 79 80 79 79 79 79 81 80 76 71 58 57 76 108 128 17 318
49 47 44 42 44 44 44 53 65 69 70 76 79 79 82 86 89 89 87 86 86 88 82 80 79 75 74 75 78 78 76 79 79 83 83 79 63 58 61 83 122 156 243
56 54 51 50 50 51 51 53 59 64 64 68 74 81 82 84 86 86 84 82 80 80 81 78 77 74 70 71 75 75 71 76 70 76 81 80 76 69 68 84 107 153 190
66 65 62 60 59 57 58 60 63 67 68 69 74 76 77 79 80 80 80 83 81 78 78 77 74 72 69 68 73 71 66 70 62 57 72 73 88 95 101 129 167 186 194
73 70 69 68 65 63 62 63 64 68 70 72 74 75 75 77 78 78 79 82 82 78 78 79 77 74 71 67 69 67 59 59 53 39 43 35 28 13 295 229 230 227 216
83 77 72 69 70 69 68 69 69 71 74 77 78 76 74 77 79 79 77 78 80 78 77 78 78 75 70 65 62 62 54 47 37 22 15 353 342 316 287 266 257 253 246
93 87 80 75 74 74 73 73 72 72 76 78 80 79 76 77 78 79 80 81 84 84 82 82 81 77 71 64 58 57 48 34 21 8 354 331 309 287 282 279 273 264 268
97 94 91 87 82 81 79 77 75 73 75 78 78 77 76 76 78 78 79 82 83 87 88 88 82 74 70 62 59 49 43 28 14 4 353 336 334 337 325 310 288 271 277
103 101 97 94 90 88 87 83 80 78 81 83 82 81 81 79 79 80 82 82 81 81 81 78 77 65 60 58 61 63 40 23 10 355 345 334 338 339 334 327 319 302 292
106 103 99 97 96 93 93 91 89 87 87 88 89 87 87 86 83 87 83 82 78 75 73 64 58 41 4 23 39 45 40 9 352 341 335 331 326 330 321 321 319 309 298
102 99 98 97 93 92 91 92 91 91 91 91 93 94 94 92 88 85 83 78 73 68 50 28 6 344 332 343 356 9 11 345 331 325 317 311 311 315 323 320 312 305 299
100 97 98 99 98 97 99 98 94 94 96 97 101 103 104 101 95 89 81 67 64 40 2 342 336 324 323 340 345 353 339 325 321 317 313 308 304 306 316 318 310 307 305
97 97 96 95 93 94 100 100 99 97 98 103 106 108 109 108 103 95 77 55 62 24 8 22 11 353 342 357 5 2 333 321 321 319 314 312 308 307 312 311 303 301 305
98 98 96 93 95 103 104 101 99 99 103 106 102 100 103 109 110 93 72 65 55 43 33 30 19 16 8 358 2 360 339 317 315 314 315 313 315 314 312 309 290 281 290
98 98 97 91 88 100 105 102 101 108 104 103 98 95 92 92 113 111 88 69 72 60 31 17 6 360 351 346 341 341 333 323 306 303 307 307 310 312 313 313 305 305 306
99 97 102 94 81 89 106 108 113 109 105 99 90 77 60 45 82 126 129 85 75 73 17 7 352 337 334 329 334 334 329 328 318 301 305 309 311 315 318 320 323 327 332
101 103 101 98 90 90 100 119 128 120 117 115 96 9 0 355 22 70 140 149 156 130 1 348 333 327 325 328 336 335 330 331 330 324 318 317 316 320 319 324 334 340 331
102 104 107 110 112 113 117 139 137 124 119 112 339 331 329 318 18 49 38 176 212 207 189 236 282 322 327 316 319 322 323 323 317 319 320 335 342 348 348 343 337 336 341
114 112 112 116 118 113 124 165 160 149 147 205 296 304 307 303 126 95 50 42 55 61 135 219 254 281 286 308 323 329 328 327 328 329 334 338 342 342 338 336 333 332 340